EHI
1 4 9 11 11 10 9 7 6 6 6 6 6 6 6 6 7 8 9 10 7 5 5 5 5 5 5 4 2 4 6 7 7 6 5 7 10 12 11 9 5 2 3
0 3 7 9 9 9 9 8 7 6 6 6 6 6 7 7 8 8 9 8 8 7 6 6 6 5 5 5 4 4 5 6 6 6 5 5 7 10 9 6 4 3 3
0 2 5 7 7 7 9 9 7 6 6 6 5 5 7 8 8 7 6 5 6 7 7 7 7 6 6 6 5 4 4 5 6 6 4 3 4 6 7 5 3 3 3
1 2 4 6 6 7 8 8 7 6 6 5 4 5 7 7 7 5 3 2 3 5 5 5 6 6 6 6 5 4 4 5 6 4 2 1 2 5 7 5 4 3 3
1 1 3 6 7 6 6 6 6 5 4 4 4 5 6 5 4 3 2 2 3 3 3 4 5 5 5 5 4 3 4 5 4 2 0 0 1 4 7 6 4 3 3
0 0 3 6 6 5 5 5 4 4 4 3 3 4 4 3 2 2 4 6 5 3 4 5 6 6 6 5 4 3 3 4 3 1 0 0 1 3 7 8 5 3 1
0 1 2 4 5 4 4 4 4 4 5 4 3 3 3 2 2 3 5 7 6 5 6 7 7 7 7 6 6 5 4 3 2 0 0 0 1 3 7 9 8 4 2
1 2 2 2 2 3 4 4 3 4 5 5 2 2 3 4 3 3 4 5 5 5 6 7 6 6 7 7 6 5 4 3 2 1 0 0 1 4 8 9 9 7 6
1 1 1 1 0 1 2 2 2 3 4 3 2 2 5 6 5 4 3 4 4 5 5 6 6 5 6 6 5 4 3 3 3 2 1 0 1 4 7 8 8 9 9
1 0 0 0 0 0 1 2 4 4 4 3 2 3 5 5 5 4 3 3 4 4 5 6 5 5 5 5 4 4 3 3 3 3 2 1 2 5 8 8 7 8 10
1 0 0 0 0 0 1 3 5 5 3 3 3 4 4 4 4 4 4 3 4 5 6 6 5 4 4 4 5 4 4 3 3 3 3 3 4 7 9 8 7 7 8
2 1 0 1 1 0 0 1 2 3 2 1 2 4 4 3 3 4 4 3 4 5 5 5 4 3 4 4 4 4 3 3 3 3 3 4 6 8 9 9 7 6 6
3 2 2 2 2 1 0 0 0 1 1 0 1 2 3 3 3 4 4 4 3 4 4 3 3 3 3 3 3 3 3 3 3 3 3 4 7 9 10 10 8 6 5
3 3 3 4 3 2 1 0 0 1 1 1 1 2 3 3 3 3 4 3 3 3 3 3 3 3 3 3 3 3 3 3 2 1 1 4 7 9 10 11 10 8 6
4 4 5 5 4 3 2 0 1 2 2 2 2 3 3 3 3 3 3 3 3 3 3 3 3 3 3 3 3 3 3 3 1 0 0 2 5 7 9 11 12 11 8
5 5 6 6 5 5 4 1 1 2 3 3 3 3 3 3 4 4 3 3 3 3 3 3 3 2 2 2 2 2 3 2 1 0 0 1 2 6 9 11 12 12 11
7 6 6 6 5 5 4 2 1 2 3 3 3 3 3 4 4 5 4 4 3 2 2 2 1 1 1 1 1 1 2 2 1 1 1 1 1 3 7 11 13 12 12
7 7 7 7 5 4 3 2 1 2 4 4 3 3 3 4 4 4 5 5 3 1 1 1 1 0 0 1 2 2 2 2 3 3 3 2 1 1 4 9 12 12 11
7 7 9 9 7 4 3 3 2 2 3 3 2 3 4 4 4 3 3 3 2 1 1 1 1 1 2 3 3 3 2 3 4 5 5 3 2 0 1 4 7 9 9
7 7 8 8 7 5 4 3 2 2 2 1 1 2 4 4 2 1 1 2 3 3 2 2 2 2 3 4 4 3 2 3 4 5 5 3 1 1 0 1 2 4 5
10 9 8 7 7 7 6 5 4 2 1 0 0 1 2 3 1 1 0 1 3 2 1 1 1 1 2 3 3 3 2 3 3 4 4 3 2 2 1 1 0 1 1
13 12 10 8 7 8 8 7 5 3 1 0 0 0 1 2 3 2 1 1 2 1 0 0 0 0 0 1 2 3 3 2 3 3 3 3 3 4 3 1 1 1 1
14 14 13 11 8 7 8 7 6 5 2 2 1 0 1 2 3 3 2 2 2 1 1 1 1 0 0 0 1 2 2 1 1 2 2 2 3 3 2 1 1 1 1
14 14 14 13 10 7 7 8 8 6 4 3 2 1 0 1 2 3 3 4 4 4 3 1 1 0 0 0 0 1 1 0 1 1 1 1 1 1 1 0 1 1 1
17 14 14 15 12 9 9 9 8 7 6 6 4 2 0 0 1 2 4 6 6 6 5 4 2 1 1 1 0 0 0 0 1 1 0 0 0 0 0 0 1 2 2
22 16 13 16 14 12 12 10 8 7 7 8 6 3 1 0 1 2 4 6 7 7 6 6 5 3 2 2 1 0 0 0 1 1 0 0 0 0 0 0 0 1 3
Wind_Speed
1 2 7 8 9 10 10 11 11 11 11 12 12 13 14 14 14 14 14 13 13 12 11 10 10 10 10 10 10 10 10 11 12 12 12 12 11 11 11 12 10 7 11
4 4 8 8 9 10 10 10 10 10 11 11 12 13 13 13 14 14 13 13 13 12 11 10 9 10 9 9 8 8 9 11 11 11 11 10 10 10 11 11 10 7 11
6 4 6 8 9 9 10 10 10 10 11 12 12 13 13 13 13 13 13 13 12 12 11 10 9 9 9 8 7 8 9 11 10 10 9 5 7 10 10 11 11 10 10
7 4 5 9 10 11 11 10 10 11 11 12 12 12 13 13 13 13 13 12 12 11 10 10 10 9 9 8 8 8 9 9 9 9 5 4 5 9 10 11 11 10 10
6 4 6 10 11 12 11 11 10 11 11 11 12 12 13 13 13 13 13 12 11 11 10 10 9 8 8 8 7 7 8 8 8 6 4 3 3 8 10 11 10 10 9
6 4 6 10 11 11 10 10 10 10 11 11 12 12 12 12 12 12 12 12 11 10 10 9 9 8 8 8 7 7 7 7 6 4 4 4 3 8 9 10 10 9 9
6 4 6 10 11 10 9 9 9 10 11 11 12 12 12 12 12 12 12 11 10 10 9 9 9 8 8 7 7 7 6 6 4 4 4 3 4 7 8 9 9 9 9
7 5 5 10 10 9 9 10 10 10 11 12 12 12 12 11 11 11 11 11 10 9 9 8 8 8 7 6 6 5 5 5 4 3 3 3 6 8 8 9 9 8 8
6 6 4 4 5 7 8 10 10 10 11 12 12 11 11 11 11 11 11 10 10 9 9 8 8 8 6 5 5 4 4 4 2 2 3 3 7 9 9 9 9 9 8
6 5 4 3 2 3 4 8 10 11 11 11 11 11 10 10 10 10 9 10 10 9 8 8 7 6 6 5 4 4 4 3 2 2 2 4 7 8 9 9 9 9 9
5 4 4 4 3 2 2 5 7 9 9 9 8 9 8 4 5 6 8 9 10 9 8 7 7 5 5 4 4 3 2 1 2 1 2 5 7 8 9 9 9 9 9
5 4 4 4 3 3 3 3 2 3 3 3 3 3 2 3 3 5 7 9 9 9 8 7 6 4 2 1 1 1 1 2 1 1 2 6 8 8 9 9 9 9 9
6 5 4 4 4 3 2 3 2 1 2 2 2 3 2 2 2 2 2 4 4 6 3 4 3 1 1 1 1 1 1 1 1 1 2 5 7 8 8 8 9 9 9
6 5 4 4 4 3 2 2 2 2 2 2 2 3 3 2 2 2 2 2 2 2 2 2 1 1 2 2 2 2 1 1 1 1 2 5 5 7 7 7 8 8 8
6 5 4 4 4 3 3 2 3 2 2 2 2 2 3 3 3 2 2 2 2 2 2 2 2 2 2 2 2 2 2 2 2 2 1 4 4 5 7 8 8 8 7
6 6 5 4 4 4 3 2 2 2 2 2 2 3 3 3 3 3 2 2 2 2 2 2 3 2 1 1 1 2 2 2 2 2 2 2 4 4 6 7 7 7 7
7 6 6 5 4 4 4 3 2 2 2 2 2 3 3 3 3 3 3 2 2 2 2 2 2 1 1 1 1 2 2 2 2 2 2 1 2 4 5 6 6 7 7
7 6 6 6 5 4 3 3 2 2 2 2 2 2 3 4 4 3 3 3 2 2 2 2 2 2 1 1 1 1 1 1 2 2 2 2 2 2 4 6 6 6 7
7 7 5 5 5 4 3 2 2 2 2 1 2 2 3 4 4 3 3 2 2 2 2 2 2 2 2 1 1 1 1 1 2 2 3 3 3 3 2 4 6 6 7
7 7 6 5 4 3 2 2 1 1 1 1 1 2 3 3 3 3 2 2 3 2 1 2 2 2 2 1 1 0 1 1 2 2 3 3 3 4 3 3 3 4 6
6 6 5 5 4 3 2 2 2 1 1 1 1 2 3 3 3 3 2 2 2 2 2 2 2 2 1 1 2 1 2 1 2 2 2 2 3 3 3 4 3 3 3
8 7 6 5 5 4 3 3 2 2 1 1 1 1 2 3 3 4 3 2 2 2 2 2 2 1 1 1 2 1 1 3 2 2 2 2 2 2 3 4 4 4 3
8 8 7 6 6 4 4 2 2 1 1 1 1 1 1 3 3 3 3 3 2 2 2 2 2 3 2 1 2 3 2 2 2 2 2 1 1 1 2 2 4 4 4
8 7 6 6 6 5 5 4 4 4 3 3 2 2 2 2 3 3 3 3 3 2 2 2 3 2 3 1 1 1 2 3 2 1 2 2 2 2 2 2 2 3 3
8 7 6 6 6 5 5 5 5 4 3 2 2 2 2 1 2 3 3 3 2 2 2 2 2 2 2 2 2 1 1 1 1 2 2 2 2 2 2 2 2 2 2
7 7 6 6 5 5 5 5 5 5 4 3 3 3 2 1 1 2 3 2 2 2 2 2 2 2 2 2 2 2 2 2 2 2 2 2 2 2 2 1 1 2 2
Wind_Direction
162 154 132 126 125 123 125 126 125 125 126 127 128 130 131 132 132 132 133 135 137 137 135 134 139 141 138 137 139 142 146 147 141 140 140 139 137 136 135 133 130 125 127
151 150 132 127 128 126 126 128 128 128 130 132 132 133 134 135 135 134 135 137 136 135 135 137 140 140 140 138 138 142 145 146 140 138 138 139 138 138 139 139 136 135 132
136 140 132 131 130 128 126 126 127 127 130 134 134 136 136 136 136 135 135 135 135 135 135 136 139 138 138 133 128 130 136 137 135 135 135 135 138 139 142 143 140 139 136
134 130 125 120 124 125 125 126 127 127 130 133 135 138 139 138 137 137 136 137 137 136 134 135 137 138 139 132 125 123 128 132 133 135 131 139 145 142 143 142 141 141 139
123 124 126 120 121 122 123 125 126 128 131 134 135 136 138 138 138 139 140 140 138 135 133 136 137 137 137 134 130 129 129 129 131 127 121 132 141 147 146 146 145 145 143
121 124 128 124 125 123 124 126 127 129 131 134 136 135 137 139 141 140 141 142 140 137 134 137 139 138 137 135 131 128 126 125 118 111 116 123 134 149 152 150 149 148 149
128 129 132 127 129 128 127 128 127 128 130 134 135 136 138 141 143 145 144 144 141 138 136 136 138 138 138 134 133 132 133 131 119 114 122 129 140 152 157 156 153 154 158
132 129 128 131 129 129 127 126 126 125 127 133 136 138 140 144 148 147 146 147 144 143 139 137 142 144 142 139 142 138 135 138 127 121 127 144 159 163 164 162 161 163 167
120 118 109 127 128 125 122 123 125 123 123 130 135 140 143 144 146 148 149 151 150 149 146 142 149 150 151 152 151 146 144 141 124 127 149 158 169 172 171 170 171 172 174
113 115 119 115 103 103 114 123 124 122 122 128 135 142 148 152 150 151 152 154 155 154 151 151 149 155 158 159 158 157 152 142 134 135 170 176 178 179 179 177 178 179 179
110 115 122 114 108 107 116 127 129 128 127 129 134 141 146 147 152 156 158 161 162 162 160 158 158 166 168 163 166 172 154 130 138 170 188 185 186 187 184 182 185 185 186
129 133 129 124 118 116 125 111 113 122 124 123 124 133 133 136 148 154 161 168 170 170 167 165 165 168 165 134 160 166 142 141 155 185 194 192 190 191 188 185 188 192 195
146 143 137 131 124 125 115 118 119 116 117 121 133 140 138 133 140 143 147 166 172 173 170 168 167 170 153 150 154 152 152 152 163 186 199 200 197 194 192 187 190 195 198
143 146 143 143 137 135 119 121 133 137 139 143 155 151 146 141 141 145 148 158 159 161 165 166 174 178 160 157 158 160 151 152 173 196 190 194 200 198 196 194 197 199 201
147 151 149 149 149 144 131 131 132 146 154 160 156 157 151 152 155 155 155 162 164 165 170 171 180 171 157 159 169 172 174 177 183 197 194 193 203 207 203 202 203 204 205
155 157 154 149 150 139 140 141 143 157 157 153 161 170 164 164 162 161 161 171 179 178 178 173 173 168 169 161 167 170 181 183 180 190 200 205 204 212 213 211 210 209 209
158 156 153 152 143 139 146 150 148 160 156 157 173 175 169 167 165 162 165 178 188 176 163 149 148 142 166 168 170 181 186 191 191 192 194 200 209 218 218 219 216 212 208
154 151 157 151 142 143 142 141 145 154 149 165 174 175 177 174 166 164 165 180 178 160 151 149 154 144 164 172 188 202 192 193 200 201 196 202 204 225 226 225 221 216 213
160 154 156 150 151 150 141 137 142 146 144 153 162 165 178 177 165 160 167 172 159 147 146 165 150 161 169 186 192 193 199 201 203 206 206 216 215 216 220 229 225 221 223
158 157 161 160 161 156 141 117 110 111 133 152 157 153 154 163 156 146 147 150 145 139 145 155 157 163 166 173 167 184 239 236 224 221 223 224 220 216 213 223 224 227 226
152 154 164 169 174 160 152 155 155 174 183 160 163 154 151 149 149 142 144 141 142 149 166 164 145 138 146 126 92 10 333 281 239 239 232 222 227 222 209 215 220 223 229
165 168 170 173 174 177 176 174 169 169 175 161 143 137 145 144 150 148 141 142 145 140 138 145 134 133 167 143 135 104 345 337 321 264 239 218 229 219 219 221 221 222 226
171 175 177 180 176 174 166 144 131 96 63 78 104 139 154 146 142 142 146 141 147 149 163 171 163 153 177 210 163 147 164 234 304 320 295 263 251 233 240 235 226 227 220
178 175 173 175 173 172 162 155 155 161 175 195 184 171 159 151 153 153 152 152 154 154 162 182 178 172 164 199 232 205 186 172 166 294 316 307 281 259 253 248 244 230 219
172 171 170 165 173 175 169 168 168 173 180 172 156 154 166 177 173 166 161 161 165 165 172 180 167 173 178 191 204 206 215 202 172 176 267 301 312 285 259 253 250 239 226
169 168 166 164 173 176 171 168 171 174 169 155 158 167 181 198 199 189 177 174 179 178 181 188 183 182 195 194 200 192 180 183 197 186 214 249 272 283 280 261 245 251 243